Theta_e
301 305 305 306 315 337 337 339 341 341 338 338 335 334 334 334 334 335 330 332 334 329 330 327 325 326 324 322 321 321 321 322
298 298 300 304 307 332 335 336 338 340 335 333 331 330 331 331 334 335 333 330 336 330 330 327 326 325 324 323 322 320 321 325
303 305 306 302 301 308 329 336 334 337 336 335 333 333 332 332 333 335 334 330 334 333 330 328 326 326 323 323 322 319 321 329
301 303 304 306 308 308 310 319 336 336 335 336 334 333 331 330 330 333 334 332 333 336 332 331 327 327 324 323 324 322 320 324
301 301 301 304 306 309 310 311 319 337 337 333 334 330 330 331 331 333 334 334 332 336 334 332 330 328 325 324 325 323 322 318
299 300 301 303 304 305 308 310 312 321 338 335 335 332 334 334 334 332 334 334 333 335 335 332 331 329 327 325 323 322 323 322
299 300 301 301 303 305 306 308 310 313 319 336 334 334 333 334 333 334 334 335 333 334 334 334 332 331 327 327 325 324 325 324
296 296 298 299 300 302 305 308 308 312 315 319 335 333 335 334 335 334 335 334 334 334 333 333 333 332 330 329 326 325 324 324
296 296 297 298 299 301 304 306 308 311 313 316 319 337 335 336 336 337 336 336 336 336 335 334 334 333 331 328 328 326 326 325
295 296 297 297 299 300 302 304 305 307 309 312 317 322 337 335 337 337 337 337 338 338 336 334 334 333 332 330 329 327 327 325
296 297 296 298 299 300 302 303 303 305 307 310 315 320 330 337 338 336 335 337 338 339 336 336 335 334 331 331 330 329 328 327
297 297 297 298 298 299 301 301 302 303 305 308 313 319 319 323 324 331 337 338 338 338 338 336 336 334 334 331 331 330 328 328
297 298 298 298 297 297 301 300 301 303 304 306 310 314 320 321 321 323 322 337 338 338 339 338 337 337 335 333 331 331 329 328
297 296 296 296 297 297 298 301 300 301 303 304 307 309 312 316 322 322 323 325 337 338 339 339 338 337 337 336 334 332 331 329
294 294 295 296 297 298 298 299 300 300 300 301 303 305 309 311 314 319 325 327 332 337 339 338 339 339 339 338 336 334 333 333
294 293 294 296 296 297 298 298 301 300 299 298 300 303 306 308 310 312 317 321 331 335 337 338 338 338 339 338 338 337 336 334
293 294 295 296 297 298 295 296 299 299 298 297 298 300 302 303 306 309 310 313 316 320 334 336 337 337 319 312 329 338 338 335
293 293 293 294 297 298 293 295 296 296 296 296 297 297 299 301 303 306 307 308 311 314 319 327 335 336 309 308 308 337 337 337
294 292 293 296 298 295 295 295 295 295 294 295 295 296 297 300 300 301 303 305 307 310 313 317 320 333 311 303 303 331 337 337
Wind_Speed
9 9 9 8 6 13 18 17 18 18 13 11 8 9 11 11 11 11 14 11 13 10 8 7 7 7 7 5 5 4 4 5
8 7 8 7 5 9 15 18 19 14 11 13 11 13 12 11 13 16 15 15 13 13 10 10 9 9 9 10 6 7 5 4
22 21 21 17 10 2 7 14 14 16 14 13 11 15 15 15 13 14 15 16 16 13 13 11 12 9 9 11 10 4 5 6
20 19 19 17 18 17 13 10 17 18 19 12 7 4 5 7 10 14 17 19 20 18 16 14 11 11 11 12 12 14 8 5
18 20 19 18 17 15 15 15 14 14 14 14 20 15 15 14 15 13 15 19 19 19 17 15 13 11 11 12 10 10 10 7
19 21 18 16 16 15 15 14 12 14 15 17 16 18 16 13 13 17 17 17 19 21 19 17 15 11 12 13 12 10 11 10
18 19 17 15 16 16 16 15 15 11 10 16 19 20 17 14 15 13 12 13 16 20 19 17 17 15 14 13 15 16 14 11
17 20 21 23 20 20 19 18 16 15 11 12 18 20 18 20 19 15 16 14 13 18 20 19 16 18 15 15 15 16 16 14
15 17 17 18 18 19 19 19 19 17 16 14 13 19 15 13 17 15 14 14 17 22 20 19 19 19 16 15 13 13 15 14
12 15 16 17 17 17 17 16 16 17 18 14 14 11 19 18 18 18 15 17 14 18 20 21 20 19 18 17 14 16 16 16
10 12 13 15 16 14 14 17 16 17 18 15 13 15 6 14 18 15 18 16 16 17 18 19 19 19 18 18 16 16 17 13
11 13 9 15 14 16 16 16 18 18 17 17 16 16 8 5 4 9 13 16 17 16 20 21 21 19 19 18 19 18 18 18
9 11 11 12 14 16 16 16 16 17 16 15 16 16 6 6 11 15 13 18 15 19 18 21 22 21 20 21 21 19 20 20
6 6 7 9 9 11 15 15 17 16 17 17 16 15 13 12 15 14 12 17 24 20 18 21 23 23 22 22 22 22 21 21
8 7 5 5 6 6 12 14 15 16 17 16 16 16 15 12 14 13 10 20 21 17 21 21 23 23 23 23 22 20 20 19
12 11 6 5 6 6 10 13 12 14 15 16 15 15 15 14 12 13 11 10 12 21 22 22 23 23 19 21 20 21 21 22
14 12 9 7 6 8 10 11 13 13 14 14 13 14 14 14 13 12 14 14 13 12 19 23 20 17 22 24 24 20 22 21
12 9 8 7 5 4 6 9 10 11 12 15 16 16 15 14 13 12 12 12 10 12 10 12 19 23 18 21 23 20 20 21
11 7 6 6 4 4 5 6 7 10 11 13 14 15 15 14 14 11 10 10 9 12 12 11 10 15 17 15 19 21 19 21
Wind_Direction
311 322 331 329 200 186 184 187 187 180 174 178 178 182 184 182 189 192 188 197 189 189 190 189 183 188 188 168 181 189 173 202
296 304 314 324 84 186 200 194 197 183 186 176 175 192 193 192 192 189 189 193 196 186 193 191 187 194 196 190 175 182 199 156
10 16 8 356 343 291 205 218 218 200 192 194 183 199 193 191 184 188 190 194 196 192 190 196 190 191 193 192 184 154 192 170
1 13 7 4 12 0 342 311 219 206 205 185 198 176 194 196 197 192 197 193 192 195 192 193 188 188 195 193 189 182 186 196
354 5 6 1 1 348 349 344 337 212 205 213 194 194 188 199 197 199 202 195 196 198 195 191 192 192 191 191 191 189 168 188
354 352 1 358 355 347 338 336 327 334 205 205 213 210 203 200 202 200 195 197 197 199 198 193 194 193 194 189 188 187 191 189
355 347 351 5 352 348 341 341 326 318 338 221 216 226 212 199 204 202 197 197 199 201 198 199 200 200 193 191 192 196 197 201
357 354 352 351 357 348 344 349 332 322 313 344 239 219 229 216 203 202 195 197 199 203 200 202 202 204 199 195 197 200 199 203
356 353 354 346 350 348 349 356 351 343 332 322 324 240 218 229 220 210 211 202 201 199 200 202 206 203 199 196 200 204 201 207
356 353 355 343 346 352 352 355 349 340 327 324 321 313 235 220 226 222 213 213 206 206 199 201 202 203 199 197 203 206 204 205
359 0 353 352 348 350 356 360 352 338 328 328 321 306 298 240 231 226 225 221 211 204 204 203 203 204 200 200 207 209 209 210
8 353 346 349 350 354 356 0 353 349 335 330 329 318 276 256 259 292 244 228 216 203 202 201 202 207 205 202 208 208 209 214
356 351 352 354 355 359 358 355 354 351 338 336 337 343 291 273 261 249 300 250 221 222 203 202 204 203 205 204 208 209 210 210
323 326 333 342 335 345 355 351 351 351 346 345 344 343 340 348 305 247 216 284 261 224 217 206 202 205 206 209 211 211 213 213
293 289 300 302 309 324 339 350 352 349 348 348 343 345 337 353 343 332 303 271 273 242 225 218 210 203 210 211 213 215 217 220
307 301 296 305 340 343 343 343 347 346 343 343 342 342 341 342 354 343 345 316 287 254 240 228 220 212 204 208 212 216 216 221
307 310 321 314 330 336 344 353 341 344 335 334 335 343 347 348 347 358 340 343 342 326 251 231 227 220 220 198 205 209 213 220
305 324 322 323 286 321 339 335 337 350 336 330 336 349 343 342 355 1 341 332 335 326 327 316 237 221 214 217 214 212 213 219
301 307 314 330 326 314 316 344 334 342 342 334 335 344 338 343 345 2 352 334 2 335 330 330 356 254 239 210 221 223 222 222